Home > Weather > Szeged > Past weeks

Flag for Hungary Past Weather in Szeged, Hungary — Yesterday and Last 2 Weeks

Now
74 °F

Passing clouds.


Feels Like: 77 °F
Forecast: 60 / 87 °F
Wind: No wind

Location: Szeged

Current Time: Aug 29, 2016 at 10:01:09 PM

Latest Report: Aug 29, 2016 at 9:00 PM


Visibility: 19 mi

Pressure: 29.97 "Hg

Humidity: 57%

Dew Point: 58 °F

Location of SzegedLocation

Past Weather in Szeged — Graph

°F

Szeged Temperature Yesterday

Maximum temperature yesterday: 89 °F (at 3:00 PM)
Minimum temperature yesterday: 58 °F (at 5:00 AM)
Average temperature yesterday: 74 °F

High & Low Weather Summary for the Past Weeks

 TemperatureHumidityPressure
High89 °F (Aug 29, 3:00 PM)100% (Aug 18, 2:00 AM)30.21 "Hg (Aug 18, 2:00 AM)
Low55 °F (Aug 18, 6:00 AM)28% (Aug 29, 5:00 PM)29.84 "Hg (Aug 17, 7:00 AM)
Average71 °F68%30.05 "Hg
* Reported Aug 14 8:00 PM — Aug 29 8:00 PM, Szeged, Weather by CustomWeather, © 2016

Note: Actual official high and low records may vary slightly from our data, if they occured in-between our weather recording intervals... More about our weather records

Advertising

Szeged Weather History for the Previous 24 Hours

Scroll right to see more
 ConditionsComfort  
Time TempWeatherWind HumidityBarometerVisibility
8:00 PM
Mon, Aug 29
77 °FPassing clouds.No wind49%29.96 "Hg19 mi
7:00 PM86 °FPassing clouds.1 mph32%29.94 "Hg22 mi
6:00 PM88 °FSunny.2 mph29%29.94 "Hg22 mi
5:00 PM89 °FPassing clouds.2 mph28%29.94 "Hg22 mi
4:00 PM89 °FPassing clouds.3 mph29%29.96 "Hg22 mi
3:00 PM89 °FPassing clouds.2 mph30%29.97 "Hg22 mi
2:00 PM89 °FPassing clouds.1 mph29%29.98 "Hg22 mi
1:00 PM87 °FSunny.1 mph31%29.99 "Hg22 mi
12:00 PM85 °FSunny.1 mph32%30.00 "Hg22 mi
11:00 AM83 °FSunny.1 mph39%30.01 "Hg19 mi
10:00 AM79 °FSunny.1 mph50%30.01 "Hg16 mi
9:00 AM74 °FSunny.1 mph63%30.02 "Hg12 mi
8:00 AM67 °FSunny.No wind78%30.03 "Hg12 mi
7:00 AM59 °FSunny.No wind91%30.03 "Hg12 mi
6:00 AM57 °FSunny.No wind89%30.03 "Hg12 mi
5:00 AM58 °FCool.No wind89%30.02 "HgN/A
4:00 AM59 °FClear.No wind88%30.03 "Hg12 mi
3:00 AM60 °FClear.No wind89%30.03 "Hg12 mi
2:00 AM61 °FClear.No wind84%30.04 "Hg19 mi
1:00 AM63 °FClear.No wind90%30.05 "Hg22 mi
12:00 AM64 °FMild.No wind79%30.05 "HgN/A
11:00 PM
Sun, Aug 28
66 °FClear.No wind75%30.06 "Hg22 mi
10:00 PM69 °FClear.No wind71%30.05 "Hg22 mi
Weather by CustomWeather, © 2016

See weather overviewHow to use our weather pages